QPF
0.00 0.00 0.00 0.01 0.01 0.01 0.01 0.01 0.01 0.01 0.01 0.00 0.00 0.01 0.01 0.01 0.02 0.02 0.01 0.01 0.01 0.02 0.02 0.02 0.02 0.03 0.04 0.05 0.06 0.04 0.04 0.04 0.05 0.04 0.02 0.02 0.01 0.01 0.01 0.01 0.01 0.00 0.00
0.00 0.00 0.00 0.00 0.01 0.01 0.01 0.01 0.01 0.01 0.01 0.01 0.01 0.01 0.01 0.01 0.01 0.02 0.01 0.01 0.01 0.02 0.02 0.03 0.02 0.03 0.03 0.04 0.05 0.03 0.03 0.03 0.04 0.03 0.02 0.01 0.01 0.01 0.01 0.00 0.00 0.00 0.00
0.00 0.00 0.00 0.00 0.01 0.01 0.01 0.01 0.01 0.01 0.01 0.01 0.01 0.01 0.01 0.01 0.01 0.01 0.02 0.01 0.01 0.01 0.02 0.03 0.02 0.02 0.03 0.04 0.04 0.03 0.03 0.03 0.03 0.02 0.01 0.01 0.00 0.00 0.00 0.01 0.01 0.01 0.01
0.00 0.00 0.00 0.00 0.01 0.01 0.01 0.01 0.01 0.01 0.01 0.01 0.01 0.01 0.01 0.01 0.02 0.02 0.03 0.02 0.02 0.02 0.02 0.02 0.02 0.02 0.02 0.03 0.03 0.03 0.03 0.02 0.02 0.01 0.01 0.00 0.00 0.00 0.01 0.01 0.01 0.01 0.01
0.00 0.00 0.00 0.00 0.01 0.01 0.01 0.01 0.01 0.01 0.01 0.01 0.01 0.01 0.02 0.02 0.02 0.03 0.02 0.03 0.02 0.02 0.02 0.02 0.02 0.02 0.02 0.02 0.02 0.02 0.03 0.02 0.02 0.01 0.01 0.00 0.00 0.01 0.01 0.01 0.01 0.01 0.01
0.00 0.00 0.00 0.00 0.01 0.01 0.01 0.01 0.01 0.01 0.02 0.01 0.01 0.01 0.01 0.02 0.02 0.03 0.03 0.02 0.02 0.02 0.01 0.02 0.02 0.01 0.02 0.02 0.02 0.03 0.02 0.02 0.02 0.01 0.01 0.00 0.00 0.01 0.01 0.01 0.01 0.00 0.00
0.00 0.00 0.00 0.00 0.01 0.01 0.01 0.01 0.01 0.02 0.02 0.01 0.01 0.01 0.01 0.02 0.02 0.03 0.03 0.03 0.03 0.02 0.01 0.02 0.02 0.02 0.02 0.02 0.02 0.02 0.02 0.02 0.02 0.01 0.01 0.00 0.00 0.01 0.01 0.01 0.01 0.00 0.01
0.00 0.00 0.00 0.00 0.01 0.01 0.01 0.01 0.02 0.02 0.02 0.02 0.01 0.01 0.01 0.01 0.02 0.03 0.03 0.03 0.03 0.02 0.02 0.02 0.02 0.02 0.02 0.02 0.01 0.01 0.02 0.02 0.02 0.01 0.01 0.01 0.00 0.01 0.01 0.01 0.01 0.01 0.01
0.00 0.00 0.00 0.00 0.00 0.01 0.01 0.01 0.02 0.02 0.02 0.02 0.01 0.01 0.01 0.01 0.02 0.03 0.03 0.03 0.03 0.03 0.03 0.02 0.02 0.02 0.02 0.02 0.01 0.01 0.01 0.01 0.01 0.01 0.01 0.01 0.01 0.01 0.01 0.01 0.01 0.02 0.02
0.00 0.00 0.00 0.00 0.00 0.01 0.01 0.01 0.02 0.02 0.03 0.03 0.02 0.01 0.01 0.01 0.02 0.02 0.03 0.04 0.04 0.04 0.03 0.03 0.02 0.02 0.02 0.02 0.02 0.01 0.01 0.01 0.01 0.01 0.01 0.01 0.01 0.01 0.01 0.01 0.01 0.01 0.01
0.00 0.00 0.00 0.00 0.00 0.00 0.01 0.01 0.01 0.02 0.03 0.03 0.02 0.01 0.01 0.01 0.01 0.01 0.02 0.02 0.03 0.03 0.03 0.02 0.02 0.03 0.02 0.02 0.02 0.01 0.01 0.01 0.01 0.01 0.01 0.01 0.01 0.01 0.01 0.01 0.01 0.01 0.01
0.00 0.00 0.00 0.00 0.00 0.00 0.01 0.01 0.01 0.02 0.03 0.03 0.02 0.01 0.01 0.01 0.01 0.01 0.01 0.02 0.02 0.02 0.03 0.03 0.03 0.03 0.03 0.01 0.01 0.02 0.01 0.00 0.01 0.01 0.01 0.01 0.01 0.01 0.01 0.01 0.01 0.01 0.01
0.01 0.01 0.00 0.00 0.00 0.00 0.00 0.01 0.01 0.02 0.02 0.03 0.03 0.03 0.02 0.02 0.01 0.01 0.01 0.01 0.02 0.02 0.02 0.03 0.03 0.02 0.02 0.01 0.01 0.01 0.01 0.00 0.00 0.00 0.00 0.01 0.01 0.01 0.01 0.01 0.01 0.01 0.01
0.00 0.00 0.00 0.00 0.00 0.00 0.00 0.01 0.01 0.01 0.02 0.03 0.03 0.03 0.03 0.03 0.02 0.02 0.01 0.01 0.01 0.01 0.01 0.01 0.01 0.02 0.02 0.02 0.02 0.02 0.02 0.01 0.00 0.00 0.00 0.00 0.01 0.01 0.01 0.01 0.01 0.01 0.02
0.00 0.00 0.00 0.00 0.00 0.00 0.00 0.01 0.01 0.02 0.02 0.03 0.03 0.03 0.04 0.04 0.03 0.03 0.02 0.02 0.02 0.01 0.01 0.01 0.01 0.02 0.02 0.02 0.02 0.02 0.02 0.02 0.01 0.01 0.00 0.00 0.00 0.00 0.01 0.01 0.01 0.02 0.02
0.00 0.00 0.00 0.00 0.00 0.00 0.01 0.01 0.01 0.02 0.03 0.03 0.04 0.04 0.04 0.04 0.04 0.04 0.03 0.03 0.02 0.02 0.02 0.01 0.01 0.02 0.02 0.02 0.01 0.02 0.02 0.02 0.02 0.02 0.01 0.00 0.00 0.00 0.00 0.01 0.01 0.02 0.02
0.00 0.00 0.00 0.00 0.00 0.00 0.01 0.01 0.01 0.01 0.02 0.02 0.03 0.04 0.05 0.05 0.05 0.05 0.04 0.03 0.03 0.02 0.02 0.02 0.02 0.02 0.02 0.02 0.02 0.02 0.02 0.02 0.02 0.02 0.02 0.01 0.00 0.00 0.00 0.01 0.01 0.02 0.02
0.00 0.00 0.01 0.01 0.00 0.01 0.01 0.01 0.01 0.01 0.02 0.02 0.03 0.05 0.06 0.07 0.06 0.05 0.05 0.04 0.03 0.03 0.03 0.03 0.02 0.02 0.01 0.02 0.02 0.02 0.02 0.02 0.02 0.03 0.03 0.02 0.02 0.01 0.01 0.01 0.01 0.01 0.02
0.00 0.00 0.00 0.01 0.01 0.02 0.02 0.01 0.01 0.02 0.02 0.02 0.04 0.05 0.07 0.08 0.08 0.07 0.05 0.05 0.04 0.04 0.03 0.03 0.03 0.02 0.02 0.01 0.01 0.02 0.02 0.03 0.03 0.03 0.03 0.03 0.02 0.02 0.01 0.01 0.01 0.02 0.02
0.00 0.00 0.00 0.01 0.01 0.01 0.01 0.01 0.01 0.02 0.02 0.02 0.04 0.05 0.07 0.09 0.09 0.09 0.08 0.07 0.06 0.05 0.03 0.03 0.03 0.02 0.02 0.02 0.02 0.02 0.02 0.03 0.03 0.03 0.03 0.03 0.03 0.02 0.02 0.01 0.01 0.02 0.02
0.00 0.00 0.01 0.01 0.01 0.01 0.01 0.01 0.01 0.01 0.02 0.02 0.03 0.04 0.06 0.09 0.10 0.10 0.10 0.10 0.09 0.07 0.05 0.04 0.03 0.02 0.02 0.02 0.02 0.02 0.02 0.02 0.03 0.03 0.03 0.03 0.02 0.02 0.02 0.02 0.01 0.01 0.01
0.00 0.00 0.00 0.01 0.01 0.02 0.01 0.01 0.01 0.01 0.02 0.03 0.03 0.03 0.05 0.07 0.09 0.10 0.10 0.09 0.10 0.10 0.08 0.06 0.05 0.04 0.03 0.03 0.03 0.02 0.02 0.02 0.03 0.03 0.04 0.04 0.03 0.02 0.02 0.02 0.02 0.01 0.01
0.01 0.01 0.01 0.01 0.02 0.04 0.04 0.02 0.01 0.01 0.02 0.03 0.03 0.03 0.03 0.04 0.07 0.09 0.09 0.08 0.08 0.09 0.09 0.07 0.06 0.06 0.05 0.05 0.04 0.04 0.03 0.02 0.02 0.02 0.04 0.04 0.04 0.04 0.03 0.02 0.02 0.02 0.02
0.04 0.03 0.02 0.02 0.02 0.02 0.04 0.04 0.04 0.03 0.02 0.02 0.01 0.02 0.02 0.03 0.05 0.08 0.09 0.08 0.07 0.07 0.08 0.07 0.06 0.06 0.05 0.05 0.04 0.04 0.03 0.03 0.03 0.02 0.02 0.03 0.04 0.05 0.05 0.05 0.03 0.02 0.02
0.04 0.04 0.03 0.03 0.03 0.02 0.01 0.02 0.04 0.05 0.06 0.04 0.03 0.02 0.03 0.03 0.03 0.06 0.07 0.08 0.08 0.07 0.08 0.08 0.07 0.06 0.05 0.05 0.04 0.04 0.03 0.03 0.03 0.04 0.03 0.02 0.02 0.03 0.03 0.04 0.05 0.04 0.03
0.01 0.02 0.04 0.04 0.04 0.03 0.02 0.02 0.03 0.05 0.07 0.07 0.07 0.04 0.03 0.03 0.03 0.05 0.07 0.07 0.08 0.07 0.06 0.06 0.07 0.06 0.05 0.04 0.04 0.04 0.04 0.04 0.04 0.04 0.04 0.03 0.03 0.03 0.03 0.03 0.04 0.05 0.04
MSLP
1009.39 1009.12 1009.00 1009.06 1009.30 1009.66 1010.06 1010.44 1010.75 1010.96 1011.09 1011.17 1011.25 1011.37 1011.56 1011.80 1012.07 1012.34 1012.56 1012.72 1012.82 1012.88 1012.92 1012.99 1013.08 1013.23 1013.40 1013.58 1013.73 1013.84 1013.89 1013.87 1013.80 1013.69 1013.57 1013.44 1013.32 1013.23 1013.15 1013.11 1013.09 1013.10 1013.13
1009.07 1008.86 1008.79 1008.90 1009.18 1009.57 1010.00 1010.41 1010.74 1010.97 1011.13 1011.24 1011.36 1011.51 1011.72 1011.98 1012.25 1012.51 1012.72 1012.87 1012.97 1013.02 1013.07 1013.13 1013.23 1013.37 1013.53 1013.69 1013.83 1013.91 1013.95 1013.93 1013.86 1013.76 1013.64 1013.52 1013.40 1013.30 1013.21 1013.14 1013.11 1013.10 1013.13
1008.58 1008.44 1008.44 1008.62 1008.96 1009.41 1009.89 1010.34 1010.71 1010.98 1011.17 1011.32 1011.47 1011.64 1011.86 1012.12 1012.38 1012.62 1012.81 1012.94 1013.03 1013.08 1013.13 1013.20 1013.30 1013.43 1013.58 1013.73 1013.85 1013.93 1013.96 1013.95 1013.90 1013.83 1013.73 1013.63 1013.52 1013.41 1013.30 1013.21 1013.15 1013.12 1013.14
1007.99 1007.93 1008.02 1008.28 1008.70 1009.22 1009.75 1010.25 1010.66 1010.96 1011.19 1011.37 1011.53 1011.72 1011.94 1012.18 1012.42 1012.64 1012.80 1012.92 1012.99 1013.05 1013.11 1013.19 1013.30 1013.43 1013.57 1013.71 1013.82 1013.90 1013.94 1013.95 1013.93 1013.89 1013.83 1013.75 1013.65 1013.54 1013.41 1013.29 1013.20 1013.15 1013.15
1007.42 1007.43 1007.61 1007.97 1008.46 1009.03 1009.62 1010.15 1010.58 1010.91 1011.15 1011.35 1011.53 1011.72 1011.94 1012.16 1012.38 1012.56 1012.71 1012.81 1012.88 1012.95 1013.02 1013.11 1013.23 1013.37 1013.51 1013.64 1013.75 1013.83 1013.88 1013.91 1013.93 1013.93 1013.91 1013.86 1013.77 1013.65 1013.51 1013.36 1013.23 1013.16 1013.15
1006.97 1007.06 1007.32 1007.74 1008.29 1008.90 1009.50 1010.03 1010.47 1010.80 1011.05 1011.25 1011.44 1011.63 1011.84 1012.05 1012.25 1012.42 1012.55 1012.65 1012.72 1012.80 1012.88 1013.00 1013.13 1013.27 1013.41 1013.54 1013.64 1013.72 1013.78 1013.84 1013.89 1013.92 1013.94 1013.91 1013.83 1013.71 1013.54 1013.37 1013.22 1013.12 1013.10
1006.71 1006.87 1007.18 1007.65 1008.22 1008.83 1009.41 1009.92 1010.33 1010.64 1010.88 1011.07 1011.27 1011.47 1011.68 1011.89 1012.09 1012.25 1012.37 1012.47 1012.55 1012.63 1012.73 1012.86 1013.00 1013.14 1013.28 1013.40 1013.49 1013.57 1013.64 1013.71 1013.78 1013.84 1013.87 1013.87 1013.80 1013.67 1013.49 1013.30 1013.13 1013.02 1012.98
1006.66 1006.85 1007.20 1007.68 1008.24 1008.82 1009.35 1009.80 1010.16 1010.43 1010.64 1010.84 1011.04 1011.26 1011.49 1011.72 1011.92 1012.09 1012.22 1012.31 1012.39 1012.48 1012.58 1012.71 1012.85 1012.99 1013.12 1013.22 1013.30 1013.37 1013.44 1013.51 1013.59 1013.66 1013.71 1013.71 1013.64 1013.51 1013.33 1013.13 1012.95 1012.82 1012.79
1006.75 1006.96 1007.32 1007.79 1008.31 1008.83 1009.29 1009.66 1009.95 1010.18 1010.38 1010.58 1010.80 1011.05 1011.31 1011.57 1011.79 1011.97 1012.09 1012.19 1012.26 1012.35 1012.44 1012.56 1012.69 1012.82 1012.93 1013.02 1013.08 1013.13 1013.18 1013.24 1013.31 1013.38 1013.42 1013.42 1013.36 1013.23 1013.05 1012.84 1012.66 1012.54 1012.50
1006.87 1007.09 1007.44 1007.88 1008.35 1008.80 1009.18 1009.48 1009.72 1009.91 1010.09 1010.31 1010.56 1010.86 1011.16 1011.45 1011.70 1011.88 1012.01 1012.10 1012.16 1012.22 1012.31 1012.41 1012.52 1012.63 1012.72 1012.79 1012.83 1012.85 1012.88 1012.91 1012.96 1013.01 1013.05 1013.04 1012.97 1012.84 1012.66 1012.46 1012.28 1012.17 1012.14
1006.89 1007.12 1007.47 1007.88 1008.30 1008.68 1009.00 1009.25 1009.44 1009.61 1009.81 1010.05 1010.35 1010.69 1011.03 1011.36 1011.62 1011.82 1011.94 1012.01 1012.06 1012.10 1012.16 1012.24 1012.33 1012.42 1012.49 1012.54 1012.55 1012.55 1012.55 1012.56 1012.57 1012.59 1012.60 1012.57 1012.49 1012.36 1012.19 1012.00 1011.83 1011.72 1011.69
1006.75 1006.98 1007.32 1007.71 1008.10 1008.44 1008.72 1008.94 1009.12 1009.30 1009.52 1009.80 1010.14 1010.52 1010.91 1011.26 1011.54 1011.74 1011.85 1011.91 1011.93 1011.95 1011.99 1012.05 1012.12 1012.20 1012.26 1012.28 1012.28 1012.26 1012.22 1012.19 1012.17 1012.15 1012.12 1012.06 1011.96 1011.83 1011.65 1011.47 1011.31 1011.20 1011.16
1006.41 1006.64 1006.97 1007.36 1007.73 1008.07 1008.34 1008.56 1008.75 1008.96 1009.22 1009.54 1009.92 1010.34 1010.75 1011.11 1011.40 1011.60 1011.70 1011.74 1011.75 1011.76 1011.78 1011.83 1011.90 1011.97 1012.02 1012.03 1012.02 1011.97 1011.90 1011.83 1011.76 1011.70 1011.62 1011.53 1011.41 1011.26 1011.08 1010.90 1010.74 1010.62 1010.57
1005.89 1006.12 1006.46 1006.85 1007.23 1007.58 1007.87 1008.12 1008.36 1008.61 1008.91 1009.27 1009.67 1010.11 1010.53 1010.90 1011.18 1011.37 1011.48 1011.51 1011.52 1011.53 1011.56 1011.61 1011.68 1011.74 1011.79 1011.80 1011.77 1011.70 1011.60 1011.49 1011.38 1011.26 1011.14 1011.00 1010.85 1010.68 1010.49 1010.31 1010.14 1010.01 1009.94
1005.27 1005.51 1005.85 1006.24 1006.65 1007.03 1007.36 1007.66 1007.95 1008.25 1008.59 1008.97 1009.39 1009.82 1010.23 1010.59 1010.87 1011.06 1011.17 1011.22 1011.25 1011.28 1011.32 1011.39 1011.47 1011.54 1011.59 1011.59 1011.55 1011.46 1011.33 1011.18 1011.01 1010.84 1010.67 1010.50 1010.31 1010.11 1009.91 1009.71 1009.53 1009.39 1009.29
1004.65 1004.88 1005.22 1005.63 1006.06 1006.48 1006.87 1007.23 1007.57 1007.92 1008.29 1008.67 1009.08 1009.49 1009.88 1010.21 1010.48 1010.68 1010.81 1010.90 1010.97 1011.03 1011.11 1011.20 1011.30 1011.37 1011.41 1011.41 1011.35 1011.23 1011.07 1010.88 1010.67 1010.46 1010.24 1010.02 1009.80 1009.57 1009.35 1009.13 1008.93 1008.77 1008.64
1004.13 1004.34 1004.67 1005.09 1005.54 1006.00 1006.45 1006.87 1007.26 1007.65 1008.02 1008.40 1008.78 1009.15 1009.49 1009.80 1010.06 1010.27 1010.44 1010.58 1010.70 1010.82 1010.94 1011.06 1011.17 1011.24 1011.27 1011.25 1011.16 1011.02 1010.83 1010.61 1010.36 1010.11 1009.85 1009.59 1009.33 1009.08 1008.83 1008.59 1008.37 1008.18 1008.03
1003.75 1003.94 1004.26 1004.67 1005.14 1005.64 1006.13 1006.61 1007.05 1007.46 1007.83 1008.19 1008.52 1008.84 1009.13 1009.41 1009.66 1009.89 1010.10 1010.29 1010.48 1010.66 1010.83 1010.97 1011.08 1011.15 1011.16 1011.11 1011.00 1010.83 1010.61 1010.36 1010.09 1009.80 1009.51 1009.22 1008.93 1008.64 1008.36 1008.10 1007.86 1007.65 1007.47
1003.53 1003.70 1004.00 1004.40 1004.89 1005.41 1005.95 1006.47 1006.95 1007.37 1007.74 1008.06 1008.34 1008.60 1008.84 1009.08 1009.32 1009.56 1009.82 1010.07 1010.32 1010.55 1010.76 1010.93 1011.04 1011.09 1011.07 1010.99 1010.84 1010.65 1010.41 1010.14 1009.85 1009.54 1009.23 1008.91 1008.59 1008.27 1007.96 1007.67 1007.40 1007.16 1006.96
1003.45 1003.61 1003.89 1004.28 1004.77 1005.32 1005.89 1006.45 1006.95 1007.39 1007.75 1008.03 1008.26 1008.45 1008.64 1008.84 1009.07 1009.32 1009.61 1009.91 1010.21 1010.49 1010.72 1010.90 1011.00 1011.03 1010.98 1010.87 1010.70 1010.48 1010.23 1009.96 1009.66 1009.34 1009.01 1008.67 1008.31 1007.96 1007.62 1007.29 1006.99 1006.72 1006.48
1003.48 1003.64 1003.90 1004.29 1004.77 1005.34 1005.94 1006.52 1007.05 1007.50 1007.85 1008.09 1008.27 1008.41 1008.54 1008.70 1008.90 1009.16 1009.47 1009.80 1010.13 1010.44 1010.68 1010.86 1010.94 1010.95 1010.87 1010.74 1010.56 1010.34 1010.09 1009.82 1009.52 1009.20 1008.85 1008.49 1008.10 1007.71 1007.33 1006.96 1006.62 1006.31 1006.04
1003.59 1003.75 1004.01 1004.38 1004.86 1005.43 1006.05 1006.66 1007.21 1007.67 1008.00 1008.22 1008.36 1008.44 1008.52 1008.64 1008.81 1009.06 1009.37 1009.71 1010.06 1010.36 1010.61 1010.77 1010.84 1010.83 1010.74 1010.59 1010.41 1010.20 1009.96 1009.71 1009.42 1009.10 1008.75 1008.36 1007.94 1007.50 1007.07 1006.65 1006.26 1005.91 1005.60
1003.76 1003.93 1004.17 1004.53 1005.00 1005.57 1006.20 1006.82 1007.38 1007.84 1008.18 1008.38 1008.48 1008.53 1008.57 1008.64 1008.79 1009.01 1009.30 1009.63 1009.96 1010.25 1010.48 1010.63 1010.68 1010.65 1010.56 1010.42 1010.25 1010.06 1009.85 1009.62 1009.35 1009.03 1008.67 1008.25 1007.79 1007.31 1006.82 1006.35 1005.91 1005.51 1005.16
1003.97 1004.15 1004.38 1004.72 1005.18 1005.73 1006.35 1006.97 1007.54 1008.00 1008.33 1008.53 1008.62 1008.64 1008.65 1008.69 1008.80 1008.99 1009.24 1009.54 1009.84 1010.10 1010.30 1010.42 1010.46 1010.42 1010.33 1010.20 1010.06 1009.90 1009.72 1009.52 1009.27 1008.95 1008.58 1008.13 1007.63 1007.10 1006.56 1006.04 1005.55 1005.11 1004.71
1004.23 1004.41 1004.63 1004.94 1005.37 1005.90 1006.49 1007.10 1007.66 1008.12 1008.46 1008.65 1008.74 1008.75 1008.75 1008.77 1008.85 1009.01 1009.22 1009.47 1009.72 1009.94 1010.09 1010.18 1010.19 1010.15 1010.06 1009.96 1009.84 1009.71 1009.57 1009.39 1009.15 1008.84 1008.45 1007.98 1007.44 1006.87 1006.29 1005.72 1005.18 1004.70 1004.27
1004.51 1004.70 1004.90 1005.19 1005.57 1006.06 1006.62 1007.20 1007.75 1008.20 1008.54 1008.74 1008.84 1008.87 1008.87 1008.89 1008.96 1009.08 1009.25 1009.44 1009.63 1009.79 1009.89 1009.93 1009.92 1009.86 1009.77 1009.68 1009.59 1009.49 1009.37 1009.20 1008.98 1008.66 1008.26 1007.76 1007.20 1006.60 1005.99 1005.39 1004.82 1004.31 1003.85
Thickness
5762 5765 5766 5766 5765 5764 5764 5763 5763 5762 5761 5760 5760 5759 5759 5758 5757 5756 5755 5754 5753 5752 5751 5750 5749 5748 5747 5747 5745 5744 5742 5741 5739 5738 5737 5735 5734 5732 5731 5730 5729 5728 5727
5765 5764 5764 5763 5762 5762 5761 5760 5760 5759 5758 5758 5757 5757 5756 5755 5754 5754 5753 5751 5751 5750 5749 5748 5747 5746 5745 5744 5742 5741 5740 5738 5736 5735 5733 5732 5731 5730 5728 5727 5727 5725 5724
5763 5762 5762 5761 5760 5759 5758 5757 5757 5756 5756 5755 5754 5754 5753 5752 5751 5751 5750 5749 5748 5747 5746 5745 5744 5743 5742 5741 5740 5738 5736 5735 5733 5731 5730 5729 5728 5727 5726 5725 5724 5723 5721
5761 5760 5759 5758 5757 5756 5755 5754 5754 5753 5752 5752 5751 5751 5750 5749 5749 5748 5747 5746 5745 5744 5743 5742 5741 5740 5738 5737 5736 5735 5733 5732 5730 5728 5727 5726 5725 5724 5723 5722 5721 5720 5718
5757 5756 5755 5754 5753 5752 5752 5751 5750 5750 5749 5749 5748 5747 5747 5746 5745 5745 5744 5742 5742 5741 5739 5738 5737 5736 5735 5733 5732 5731 5730 5728 5727 5725 5724 5723 5722 5721 5720 5719 5718 5717 5715
5752 5752 5751 5750 5749 5749 5748 5747 5746 5746 5746 5745 5744 5744 5743 5743 5742 5741 5740 5739 5738 5737 5736 5735 5733 5732 5731 5730 5729 5728 5726 5725 5723 5722 5720 5719 5719 5718 5718 5716 5715 5713 5712
5747 5747 5747 5746 5746 5745 5744 5743 5742 5742 5742 5741 5741 5740 5739 5739 5738 5737 5736 5735 5734 5733 5732 5731 5730 5729 5727 5726 5725 5724 5723 5721 5720 5718 5717 5716 5716 5715 5715 5713 5712 5710 5709
5745 5744 5743 5742 5742 5741 5740 5739 5738 5738 5738 5737 5736 5736 5735 5735 5734 5733 5732 5731 5730 5729 5728 5727 5726 5725 5724 5722 5721 5720 5719 5717 5716 5715 5714 5713 5712 5712 5712 5710 5709 5707 5706
5741 5739 5739 5738 5737 5736 5736 5735 5734 5734 5733 5733 5732 5731 5731 5730 5730 5729 5728 5727 5726 5725 5724 5723 5722 5721 5720 5719 5718 5717 5715 5714 5713 5711 5710 5710 5709 5709 5708 5707 5706 5704 5702
5734 5734 5734 5733 5732 5731 5731 5730 5730 5729 5728 5728 5727 5726 5726 5725 5725 5724 5723 5723 5722 5721 5720 5719 5718 5717 5716 5715 5713 5712 5711 5710 5709 5707 5706 5706 5705 5705 5705 5704 5702 5701 5699
5726 5727 5728 5728 5727 5726 5725 5725 5725 5724 5723 5723 5722 5721 5721 5720 5720 5719 5718 5717 5717 5716 5715 5714 5713 5713 5711 5710 5709 5708 5707 5705 5704 5703 5702 5702 5701 5701 5701 5700 5698 5697 5695
5719 5721 5722 5722 5722 5721 5720 5720 5719 5718 5718 5717 5716 5716 5715 5714 5714 5713 5713 5712 5711 5711 5710 5710 5709 5708 5706 5705 5704 5703 5702 5701 5700 5699 5698 5697 5697 5697 5696 5695 5694 5692 5691
5715 5716 5717 5717 5717 5716 5715 5714 5713 5712 5712 5711 5710 5710 5709 5708 5708 5707 5707 5706 5706 5705 5704 5704 5703 5702 5701 5700 5699 5698 5697 5696 5695 5694 5694 5693 5693 5692 5692 5691 5689 5688 5687
5710 5711 5712 5712 5712 5711 5710 5709 5707 5706 5705 5705 5704 5704 5703 5702 5702 5701 5701 5700 5700 5699 5698 5697 5696 5696 5695 5694 5693 5693 5692 5691 5690 5690 5689 5689 5688 5687 5687 5686 5685 5684 5682
5705 5706 5707 5707 5706 5705 5704 5703 5702 5700 5699 5698 5698 5697 5697 5696 5695 5695 5695 5694 5693 5692 5692 5691 5690 5689 5688 5688 5687 5687 5686 5686 5685 5684 5684 5683 5683 5682 5681 5681 5680 5679 5678
5699 5700 5701 5701 5701 5699 5697 5696 5695 5694 5693 5692 5691 5691 5690 5690 5689 5688 5688 5688 5687 5686 5685 5684 5683 5682 5681 5681 5680 5680 5680 5680 5679 5679 5678 5678 5677 5676 5676 5675 5675 5674 5673
5695 5695 5694 5694 5694 5692 5691 5689 5688 5687 5686 5684 5684 5683 5683 5682 5682 5681 5680 5680 5680 5679 5678 5676 5675 5674 5674 5673 5673 5673 5673 5673 5673 5673 5672 5672 5671 5671 5670 5670 5669 5669 5667
5689 5688 5687 5688 5685 5684 5683 5681 5680 5678 5677 5676 5675 5675 5674 5674 5673 5673 5672 5672 5673 5671 5670 5668 5667 5665 5665 5665 5665 5666 5666 5666 5666 5666 5665 5665 5664 5664 5663 5663 5662 5662 5661
5681 5681 5679 5678 5677 5676 5674 5673 5671 5669 5668 5667 5666 5665 5665 5665 5664 5664 5663 5663 5664 5663 5662 5660 5659 5657 5656 5656 5657 5658 5658 5658 5659 5659 5658 5658 5657 5657 5656 5656 5655 5654 5654
5673 5672 5671 5670 5668 5667 5665 5663 5661 5659 5658 5658 5656 5656 5655 5655 5654 5654 5654 5654 5654 5653 5652 5651 5649 5648 5647 5647 5647 5648 5649 5650 5650 5650 5650 5650 5650 5649 5648 5648 5647 5646 5646
5663 5662 5662 5660 5659 5657 5655 5652 5650 5649 5648 5647 5646 5645 5645 5644 5644 5644 5644 5644 5644 5644 5643 5642 5640 5638 5637 5636 5634 5635 5638 5640 5641 5642 5642 5641 5641 5640 5640 5639 5638 5638 5638
5653 5652 5652 5651 5650 5649 5647 5645 5643 5641 5639 5637 5636 5635 5634 5634 5634 5633 5633 5634 5634 5633 5632 5631 5630 5628 5626 5624 5621 5620 5623 5627 5631 5633 5632 5632 5632 5632 5631 5630 5630 5630 5629
5643 5643 5644 5642 5641 5640 5638 5635 5633 5630 5628 5626 5625 5624 5624 5624 5624 5623 5623 5623 5623 5622 5621 5620 5619 5617 5615 5613 5610 5607 5607 5612 5616 5621 5622 5622 5622 5621 5621 5621 5621 5621 5621
5634 5634 5633 5633 5632 5630 5629 5626 5623 5620 5618 5617 5615 5614 5614 5614 5614 5614 5613 5612 5611 5610 5609 5608 5607 5605 5603 5601 5599 5598 5597 5598 5598 5605 5609 5610 5610 5610 5610 5611 5611 5611 5611
5626 5624 5623 5622 5622 5620 5619 5617 5613 5611 5609 5607 5606 5605 5605 5604 5604 5603 5602 5601 5600 5599 5598 5596 5595 5593 5591 5590 5588 5587 5585 5584 5585 5586 5593 5597 5597 5599 5600 5600 5601 5601 5601
5616 5614 5613 5611 5611 5610 5609 5607 5604 5602 5600 5597 5596 5595 5594 5593 5593 5592 5591 5590 5589 5588 5587 5585 5583 5581 5579 5578 5577 5575 5573 5572 5573 5573 5576 5581 5584 5589 5589 5590 5590 5591 5591